Preview of NWS' New Version of Forecast
This preview is not operational and should not be used for support decisions.

Regional Weather Roundup (RWR)

Issued by National Weather Service (NWS)

                            
000
ASCA42 TJSJ 181810
RWRPR 
PUERTO RICO/U.S. VIRGIN ISLANDS HOURLY WEATHER ROUNDUP
NATIONAL WEATHER SERVICE SAN JUAN PR
200 PM AST THU APR 18 2019

PRZ001>002-007>008-010-181900-
PUERTO RICO
  
CITY           SKY/WX    TMP DP  RH WIND       PRES   REMARKS
SAN JUAN LMM   MOSUNNY   86  70  58 E20       29.99F HX  90           
AGUADILLA      SUNNY     82  70  65 E21G26    30.01F                  
CEIBA          SUNNY     88  70  55 MISG      30.01F HX  92           
$$

VIZ001>002-181900-
U.S. VIRGIN ISLANDS
  
CITY           SKY/WX    TMP DP  RH WIND       PRES   REMARKS
CHARLOTTE AMA  MOSUNNY   84  68  58 SE16      29.99F                  
CHRISTIANSTED  MOSUNNY   86  68  54 SE17G26   29.99F                  
$$

HOURLY WEATHER ROUNDUP FOR THE NEWS MEDIA
  
CITY           SKY/WX    TMP DP  RH WIND       PRES   REMARKS
ORLANDO        FAIR      87  62  43 S12       29.99F                  
NEW YORK       DRIZZLE   56  53  90 SE17      30.04F                  
NEWARK         CLOUDY    58  52  80 E9        30.01F                  
CHICAGO        RAIN      50  47  89 NW10      29.62R FOG              
HARTFORD       CLOUDY    50  41  71 S17G29    30.19F                  
BOSTON         CLOUDY    53  36  52 S16       30.19F                  
DALLAS         CLOUDY    62  54  74 NW24G30   29.80S                  
PHILADELPHIA   PTSUNNY   75  56  51 S13       29.96S                  
LOS ANGELES    PTSUNNY   72  52  49 W9        30.10S                  
WASHINGTON DC  PTSUNNY   70  53  54 SW9       29.93F